Temp
23 26 26 26 26 26 26 25 24 20 20 20 20 18 18 17 18 17 17 17 16 16 14 15 14 14 13 13 12 12 12 12 12 11 10 9 7 6 6 5 5 4 3 1
25 26 26 25 24 25 26 25 21 19 19 20 19 17 17 18 18 18 18 17 17 15 14 14 13 13 12 12 12 12 12 12 11 9 8 7 6 4 3 3 2 2 1 1
26 26 24 25 23 25 26 26 21 21 19 19 19 17 17 17 17 18 17 17 17 16 15 13 13 12 12 12 12 11 11 11 9 9 8 7 5 4 3 2 2 1 1 0
25 25 25 25 25 26 27 25 23 20 21 21 20 22 18 18 18 18 18 18 16 15 13 13 12 12 12 11 11 11 10 9 8 8 7 6 4 2 2 2 1 1 1 1
26 25 25 26 27 26 23 24 22 22 22 22 20 22 19 18 17 18 17 15 13 13 12 12 11 11 11 11 10 10 9 8 7 7 6 4 3 2 2 2 1 1 1 0
25 24 26 27 23 23 23 23 23 23 23 24 22 22 21 18 19 19 17 14 12 12 11 12 11 11 10 10 10 9 8 7 7 6 4 3 2 2 2 2 2 1 1 0
25 25 25 23 22 23 24 25 24 24 24 24 20 21 22 20 19 19 17 13 12 11 11 10 9 9 10 10 9 8 7 7 5 4 3 2 2 2 2 2 2 1 1 1
25 26 26 26 26 26 25 26 26 24 23 24 20 22 22 17 15 17 15 13 12 11 10 9 9 10 10 9 7 7 7 5 4 4 3 2 2 3 3 3 3 2 2 2
24 26 26 26 26 28 25 26 24 21 20 23 22 20 17 15 15 14 13 12 11 10 10 9 9 9 9 7 7 7 6 4 4 3 3 3 3 3 3 3 3 2 2 2
25 25 25 25 26 24 27 23 24 24 22 22 21 20 23 16 15 14 13 12 11 10 9 9 9 8 8 7 7 6 5 5 4 3 3 3 3 3 3 3 3 3 3 3
25 24 25 25 25 27 25 26 21 23 22 25 23 23 18 19 17 15 14 12 11 10 9 8 8 8 7 7 6 5 5 5 4 3 3 3 3 4 3 4 3 3 3 3
24 23 24 24 24 23 25 25 25 27 22 21 22 23 16 17 17 14 13 12 11 10 8 7 7 7 7 6 6 5 5 4 4 4 4 4 4 4 4 3 3 3 3 3
23 21 24 25 25 24 25 22 21 20 21 21 23 23 15 17 15 14 13 11 10 9 8 7 7 7 6 6 5 5 5 4 4 4 4 4 4 4 3 3 3 3 3 3
22 20 24 24 25 25 24 22 22 23 24 22 23 21 15 15 15 13 12 11 10 9 8 7 7 6 6 6 5 4 4 4 4 4 4 4 4 4 3 3 3 3 3 3
22 21 21 20 22 23 24 24 23 24 22 24 22 21 18 16 15 13 12 10 9 8 8 7 7 6 6 5 5 4 4 4 4 4 4 4 4 4 4 4 4 4 3 3
19 19 20 21 22 23 22 22 21 21 20 19 19 20 17 15 13 12 11 10 10 9 8 7 6 6 6 5 4 4 4 4 4 4 4 4 4 4 4 4 4 4 4 3
20 20 21 20 20 23 23 22 22 21 20 21 22 21 15 13 13 12 11 11 10 9 8 7 6 6 5 5 5 4 4 4 4 4 4 4 4 4 4 4 4 4 4 4
18 18 19 20 20 22 22 20 21 21 20 20 18 17 16 15 14 13 12 11 10 9 8 7 6 6 6 5 5 4 4 4 4 4 4 4 4 4 4 4 4 4 4 4
18 18 19 21 19 21 22 19 21 22 23 20 19 16 14 12 11 10 11 10 10 9 8 7 6 6 6 5 5 4 4 4 4 4 4 4 4 4 4 4 4 4 4 4
19 19 20 17 21 22 23 20 20 21 23 19 17 14 12 13 16 17 10 9 9 8 8 7 7 6 6 5 5 4 4 4 4 4 4 4 4 4 4 4 4 4 4 3
21 20 20 19 22 22 21 20 20 22 23 17 16 14 13 16 16 13 10 9 9 8 8 7 7 6 6 6 5 5 4 4 4 4 4 4 4 4 4 4 4 4 4 3
22 22 21 19 21 22 19 19 22 19 14 15 14 14 13 11 13 11 10 9 8 8 7 7 7 6 6 6 6 5 5 4 4 4 4 4 4 4 5 4 4 4 4 4
22 21 22 22 23 15 15 16 16 17 16 14 14 12 12 12 11 10 9 8 8 8 8 8 7 7 7 6 6 6 5 4 4 4 4 4 4 5 5 5 5 4 4 3
17 16 20 19 17 16 15 16 16 17 17 16 14 14 12 12 11 9 8 8 8 8 8 8 7 7 6 6 6 5 5 4 4 4 4 4 4 5 5 5 5 4 4 4
19 17 18 18 15 14 14 16 17 17 17 16 15 15 13 13 10 9 9 8 8 8 8 8 7 7 6 6 6 5 4 4 4 4 4 4 4 4 5 5 5 5 4 4
18 18 22 23 19 18 16 16 17 17 16 16 15 12 12 12 10 9 9 9 8 8 8 8 7 7 7 7 6 5 4 4 4 4 4 4 4 4 5 5 4 4 4 4
Height
1512 1513 1515 1511 1513 1513 1516 1522 1531 1544 1545 1550 1552 1558 1560 1563 1565 1565 1565 1567 1568 1570 1571 1572 1572 1572 1572 1571 1570 1568 1566 1562 1559 1555 1551 1546 1542 1536 1532 1527 1523 1518 1513 1509
1511 1511 1508 1512 1515 1515 1517 1523 1539 1547 1548 1549 1554 1559 1560 1561 1561 1561 1563 1565 1567 1569 1571 1571 1572 1571 1571 1570 1569 1567 1564 1559 1556 1552 1547 1543 1539 1536 1531 1526 1521 1517 1512 1508
1508 1506 1507 1509 1513 1514 1511 1514 1532 1535 1549 1551 1555 1562 1561 1561 1561 1560 1562 1564 1566 1568 1570 1569 1570 1570 1570 1569 1568 1565 1561 1558 1554 1551 1546 1542 1538 1535 1531 1527 1523 1517 1513 1508
1506 1504 1506 1508 1509 1505 1508 1509 1519 1533 1536 1547 1548 1546 1557 1555 1556 1558 1559 1561 1564 1564 1567 1569 1569 1569 1569 1569 1567 1564 1561 1557 1553 1549 1545 1540 1537 1535 1532 1529 1524 1518 1513 1509
1502 1502 1503 1505 1498 1500 1513 1509 1520 1528 1532 1536 1549 1545 1547 1552 1553 1552 1556 1560 1562 1563 1567 1568 1568 1569 1569 1569 1567 1563 1561 1557 1553 1549 1545 1542 1540 1538 1535 1530 1524 1519 1514 1508
1498 1497 1497 1496 1499 1500 1512 1516 1523 1526 1529 1536 1539 1542 1539 1548 1544 1547 1553 1558 1560 1563 1566 1567 1569 1569 1569 1568 1566 1563 1560 1557 1554 1550 1547 1544 1542 1539 1536 1530 1526 1521 1516 1510
1497 1493 1494 1495 1507 1509 1507 1508 1532 1539 1538 1535 1541 1541 1530 1536 1539 1542 1549 1556 1560 1563 1566 1568 1569 1569 1569 1568 1566 1564 1561 1558 1555 1552 1549 1546 1543 1540 1537 1533 1529 1523 1518 1512
1500 1503 1491 1488 1491 1494 1504 1502 1515 1540 1541 1531 1539 1534 1527 1539 1541 1541 1548 1553 1559 1563 1566 1568 1568 1569 1568 1567 1566 1564 1562 1559 1557 1554 1550 1547 1544 1541 1538 1534 1530 1526 1521 1515
1499 1494 1484 1485 1486 1485 1504 1508 1510 1529 1541 1535 1532 1532 1536 1541 1543 1544 1547 1551 1556 1561 1564 1566 1567 1568 1568 1567 1566 1564 1561 1559 1557 1554 1551 1548 1544 1541 1538 1535 1531 1527 1523 1518
1488 1495 1484 1486 1484 1490 1490 1501 1515 1514 1542 1543 1536 1535 1518 1536 1539 1544 1547 1551 1556 1560 1563 1565 1567 1568 1567 1566 1565 1563 1561 1559 1556 1553 1550 1547 1544 1541 1538 1535 1531 1528 1524 1520
1483 1488 1490 1485 1490 1487 1497 1499 1511 1512 1520 1521 1530 1520 1522 1521 1529 1537 1545 1551 1555 1558 1562 1564 1566 1567 1566 1566 1565 1562 1561 1559 1557 1554 1550 1547 1544 1542 1539 1536 1532 1529 1525 1521
1481 1489 1497 1495 1491 1490 1488 1494 1496 1501 1525 1526 1521 1515 1527 1526 1531 1539 1545 1551 1555 1558 1561 1564 1565 1565 1566 1565 1564 1562 1560 1559 1557 1554 1552 1549 1546 1543 1541 1538 1535 1531 1527 1522
1477 1493 1501 1499 1493 1491 1491 1500 1503 1506 1510 1521 1517 1513 1528 1526 1533 1540 1544 1550 1554 1557 1560 1563 1564 1564 1564 1564 1563 1562 1560 1559 1557 1555 1553 1550 1547 1545 1543 1540 1537 1533 1529 1525
1472 1490 1488 1499 1489 1485 1494 1498 1501 1499 1504 1515 1511 1514 1528 1530 1532 1539 1545 1549 1552 1555 1558 1560 1562 1562 1563 1563 1562 1562 1560 1559 1557 1556 1554 1552 1549 1547 1545 1542 1539 1535 1531 1527
1473 1489 1491 1493 1491 1489 1490 1494 1498 1499 1504 1506 1510 1512 1515 1523 1529 1537 1542 1548 1551 1554 1557 1558 1560 1562 1562 1562 1561 1561 1560 1559 1558 1556 1555 1553 1551 1549 1546 1544 1540 1537 1533 1529
1475 1493 1492 1497 1495 1490 1496 1499 1501 1504 1509 1513 1513 1512 1516 1524 1532 1538 1541 1545 1548 1551 1554 1557 1559 1560 1561 1561 1561 1560 1560 1559 1558 1558 1557 1555 1553 1550 1547 1545 1543 1540 1536 1532
1477 1487 1494 1507 1502 1494 1501 1499 1500 1503 1505 1505 1506 1504 1516 1525 1529 1532 1538 1542 1545 1548 1552 1555 1557 1559 1560 1560 1560 1560 1559 1559 1559 1559 1558 1556 1554 1552 1550 1547 1545 1542 1538 1534
1480 1489 1495 1509 1505 1516 1497 1499 1499 1498 1501 1504 1506 1510 1512 1517 1526 1532 1536 1540 1543 1546 1550 1553 1556 1557 1559 1559 1558 1559 1559 1559 1560 1559 1558 1557 1555 1554 1552 1550 1547 1544 1540 1536
1470 1483 1504 1509 1517 1505 1494 1497 1497 1496 1496 1499 1503 1509 1516 1523 1529 1533 1535 1538 1541 1544 1548 1552 1554 1556 1557 1557 1557 1557 1558 1558 1559 1559 1558 1557 1556 1554 1552 1550 1547 1544 1541 1537
1477 1473 1490 1513 1508 1508 1485 1489 1492 1493 1496 1493 1500 1506 1513 1520 1522 1520 1529 1535 1539 1543 1547 1550 1552 1554 1556 1556 1556 1556 1556 1557 1557 1557 1557 1557 1556 1555 1552 1549 1547 1544 1541 1538
1483 1487 1492 1503 1497 1491 1485 1489 1492 1501 1495 1492 1497 1503 1509 1513 1515 1518 1524 1532 1536 1541 1546 1549 1552 1554 1555 1556 1556 1555 1555 1555 1556 1556 1557 1557 1556 1554 1552 1549 1547 1544 1542 1539
1478 1485 1490 1499 1499 1497 1487 1491 1491 1489 1490 1492 1496 1501 1508 1512 1515 1518 1524 1530 1535 1540 1545 1548 1550 1553 1554 1555 1555 1554 1554 1554 1555 1555 1556 1556 1555 1554 1552 1549 1547 1544 1542 1539
1481 1480 1479 1483 1481 1486 1486 1487 1487 1488 1489 1491 1495 1500 1505 1510 1515 1520 1525 1531 1535 1540 1545 1548 1551 1551 1552 1553 1554 1553 1553 1552 1553 1554 1554 1554 1554 1552 1551 1549 1546 1544 1542 1539
1481 1482 1479 1483 1484 1485 1485 1486 1486 1487 1488 1492 1496 1499 1504 1509 1515 1520 1526 1531 1536 1540 1544 1547 1550 1551 1551 1552 1552 1552 1551 1550 1551 1552 1552 1551 1551 1550 1549 1548 1545 1543 1540 1538
1474 1480 1481 1482 1483 1484 1483 1484 1485 1487 1490 1493 1497 1501 1505 1510 1515 1519 1526 1531 1536 1540 1544 1546 1549 1550 1551 1552 1552 1551 1550 1549 1549 1550 1550 1549 1549 1549 1548 1547 1545 1542 1540 1537
1471 1472 1471 1469 1470 1475 1476 1481 1484 1488 1491 1494 1497 1501 1507 1511 1515 1520 1527 1532 1536 1539 1543 1546 1548 1549 1549 1550 1551 1551 1551 1550 1549 1549 1549 1549 1548 1548 1547 1545 1543 1541 1539 1536
Wind_Speed
3 5 11 19 14 4 11 9 13 5 4 9 7 11 12 16 15 14 13 11 10 8 7 9 9 7 4 4 7 10 13 17 21 25 26 25 24 22 23 24 27 29 28 24
3 8 6 8 10 8 8 12 7 8 8 3 10 8 8 14 17 18 15 13 12 11 9 11 8 6 5 5 7 11 16 21 25 25 28 26 21 18 21 23 24 25 23 22
7 3 11 6 7 8 7 8 15 9 9 6 13 5 7 10 14 16 15 14 12 11 11 11 7 6 4 4 8 14 19 23 24 27 28 24 21 20 22 23 24 24 22 22
5 8 8 8 7 9 8 7 17 22 11 4 11 3 10 12 14 15 14 16 12 10 11 10 8 5 2 4 10 16 20 22 25 27 24 25 23 22 21 22 24 23 21 21
4 9 8 6 5 11 5 13 17 14 7 9 9 5 3 10 14 14 11 10 11 10 10 10 8 5 0 6 13 17 19 22 25 23 22 22 20 18 20 23 26 24 25 19
4 1 4 2 7 11 20 22 12 7 2 4 5 3 5 9 15 14 13 11 12 13 12 11 9 4 3 9 13 17 19 22 21 20 20 19 20 20 23 26 28 26 26 24
3 5 4 20 16 8 8 7 3 2 4 3 1 5 2 9 5 14 19 16 14 14 13 10 6 2 5 10 13 15 19 19 17 17 17 19 21 21 22 24 26 28 28 29
6 5 10 10 6 10 14 2 4 6 5 2 2 6 3 1 2 11 19 18 17 15 12 9 5 1 6 10 11 15 17 14 14 15 17 18 19 19 21 22 24 24 27 30
5 2 3 2 5 10 7 6 5 7 2 3 3 2 5 7 7 16 20 21 19 16 12 9 4 2 6 7 11 14 12 11 13 16 17 17 17 17 18 22 21 21 22 24
1 2 3 5 4 13 4 11 4 3 6 5 4 6 9 11 12 13 18 21 19 17 13 9 3 2 4 7 11 11 10 11 14 15 16 16 18 19 17 19 20 19 19 20
5 1 2 2 3 7 6 4 5 4 1 3 3 4 2 14 17 18 21 21 21 18 13 9 5 1 3 7 9 7 8 10 11 15 18 17 17 18 16 18 19 20 20 20
4 3 3 2 2 1 3 4 5 4 5 0 2 1 4 7 18 21 22 21 19 16 14 10 6 2 2 5 7 5 7 9 10 14 16 17 16 15 16 19 23 22 21 23
9 1 4 2 4 3 2 3 4 7 2 5 3 1 4 10 19 20 24 22 20 18 15 10 7 4 0 4 4 3 5 9 10 12 14 14 14 14 15 19 21 22 23 21
6 3 3 5 3 3 5 8 4 2 3 6 4 1 7 11 17 22 22 22 21 18 15 11 8 5 2 2 2 1 3 7 9 11 13 13 14 13 15 15 18 21 21 23
2 4 2 7 3 2 7 9 5 3 7 1 1 4 10 16 18 24 24 22 21 18 15 11 9 7 3 2 2 1 2 5 7 10 11 12 14 14 11 14 16 20 21 22
1 3 1 5 5 5 7 6 9 7 5 3 3 3 2 16 19 21 24 23 21 17 14 12 10 8 4 1 1 3 1 2 5 8 10 11 12 12 10 13 15 18 20 22
3 5 3 2 4 4 4 5 3 4 4 4 3 2 18 16 22 26 25 23 20 18 15 13 10 8 5 1 1 3 3 1 3 6 9 9 10 11 11 12 14 18 19 19
6 3 3 2 2 4 3 2 5 3 4 9 2 7 17 18 20 20 21 21 18 17 15 14 11 9 5 0 0 3 2 2 2 5 7 7 8 9 10 11 12 15 20 19
4 5 4 4 2 4 3 5 6 7 5 13 7 11 12 16 15 12 18 18 16 16 14 13 12 10 5 3 1 2 3 4 0 2 4 5 6 7 8 9 10 11 13 17
7 6 5 4 4 5 1 4 7 4 4 17 15 18 22 22 10 7 24 20 17 15 15 15 14 11 8 7 7 1 3 5 3 2 2 3 4 6 9 10 9 9 12 17
3 3 4 3 3 3 2 9 8 4 1 16 18 22 26 14 4 9 25 21 18 18 18 14 12 10 8 5 7 6 1 5 5 2 1 2 3 6 10 10 11 11 12 16
3 5 3 3 2 6 6 8 6 2 2 12 17 20 22 10 11 19 23 23 22 20 17 12 14 13 9 4 3 7 6 4 5 3 2 3 5 7 11 13 13 13 12 14
3 1 3 5 1 2 4 1 2 2 3 10 17 19 20 17 18 21 23 23 22 19 16 12 12 12 8 4 2 4 7 4 6 4 5 5 7 6 10 13 14 12 12 14
1 2 2 4 4 3 5 6 3 4 3 12 15 22 23 19 20 21 22 22 21 17 15 12 12 11 7 3 3 4 7 6 5 4 5 6 6 6 8 12 14 13 12 14
1 10 6 1 2 2 5 9 8 10 11 15 15 17 21 19 21 23 23 21 19 16 14 11 9 8 6 2 3 5 8 5 5 3 4 3 4 6 7 12 13 13 13 11
8 7 4 3 10 2 7 17 16 15 17 16 17 19 19 19 23 23 21 19 17 16 14 10 6 4 4 3 4 6 5 4 2 2 2 2 3 6 8 11 10 11 12 12
Wind_Direction
140 196 187 189 206 177 158 150 165 161 176 187 202 158 172 184 194 200 202 191 191 175 173 195 218 236 261 298 317 332 334 338 334 335 343 346 347 346 348 350 348 346 346 348
153 227 201 156 170 162 157 146 129 99 144 151 156 147 172 190 205 214 212 205 204 180 174 199 211 221 246 297 335 340 343 342 343 349 349 352 356 358 358 355 359 360 359 359
190 161 152 165 176 181 204 193 167 140 130 122 146 151 195 199 219 222 228 227 220 196 181 189 206 224 253 312 344 346 346 346 348 350 352 356 359 2 2 7 4 3 2 3
226 171 204 179 202 197 216 169 151 141 154 164 212 191 214 203 209 217 227 231 210 187 187 194 204 205 228 347 350 348 349 350 350 353 357 360 6 10 9 4 1 2 360 358
203 178 168 218 237 181 66 141 137 144 108 135 192 253 131 198 212 210 210 179 160 164 161 162 162 172 156 0 352 352 352 352 353 356 360 4 12 11 6 8 9 7 6 5
249 233 205 190 39 110 124 114 104 100 135 238 155 246 192 195 220 204 188 165 154 151 153 163 167 159 16 356 351 351 356 353 353 2 5 11 18 15 14 13 13 14 11 11
223 216 126 119 100 133 162 148 105 157 204 258 63 212 322 189 199 205 179 160 154 154 157 154 146 102 2 351 351 357 354 354 5 10 17 22 23 20 15 15 16 18 16 14
202 201 173 182 185 180 172 159 174 198 205 199 127 237 144 60 282 182 165 155 154 156 158 149 152 53 353 352 359 358 353 7 14 18 21 25 21 17 14 16 12 19 21 21
176 201 122 171 170 154 181 214 98 108 59 202 204 256 183 140 121 148 152 156 158 158 157 156 160 358 0 1 358 352 5 18 21 26 29 26 19 12 16 14 10 13 19 17
220 170 74 162 113 47 173 132 154 133 160 226 224 268 237 191 170 163 163 163 160 159 158 164 161 6 8 358 354 356 21 26 32 32 21 13 11 10 18 17 9 17 17 13
191 291 111 201 8 153 146 160 67 100 307 229 209 229 337 200 181 174 171 170 166 164 164 163 164 84 355 354 356 18 26 29 25 17 16 16 19 32 33 17 16 20 16 12
181 111 88 67 35 240 78 142 159 228 183 151 290 203 347 242 180 171 169 170 169 165 164 165 159 154 339 360 2 29 31 24 18 14 11 15 27 33 24 26 28 27 19 21
174 158 112 98 159 149 117 93 107 104 124 176 241 110 31 145 162 173 168 170 168 166 166 168 166 175 194 357 5 36 36 23 18 10 12 21 29 29 27 28 31 31 26 21
118 111 184 178 174 118 145 137 142 122 178 156 236 198 168 165 166 170 172 170 169 169 172 173 175 182 182 346 358 38 29 20 20 21 29 25 23 23 22 23 30 26 26 28
111 115 116 44 336 128 135 151 154 126 132 285 55 215 186 183 177 175 171 170 170 171 176 180 181 179 183 322 332 184 49 28 31 28 22 20 22 16 21 34 35 25 27 29
346 108 308 62 16 144 112 111 121 115 133 115 165 209 167 163 167 172 175 174 176 178 180 181 184 180 186 278 255 199 152 50 37 21 16 16 21 26 49 43 36 28 24 26
82 133 87 108 359 141 136 163 127 142 174 164 194 111 152 164 179 181 179 181 181 180 181 185 186 180 184 251 263 178 185 99 31 9 7 21 32 43 46 44 37 31 23 24
115 105 74 121 14 219 86 259 231 189 205 197 166 164 180 179 182 181 186 182 181 179 181 183 183 179 178 291 287 192 193 197 14 4 15 32 42 44 38 32 32 32 25 23
67 126 90 160 192 307 199 184 174 194 210 193 179 149 152 149 148 181 189 186 182 180 179 182 177 168 136 65 19 196 207 206 185 341 7 26 29 26 24 20 18 23 20 22
58 84 111 178 170 230 170 154 159 166 260 182 172 161 158 157 183 191 185 179 174 170 173 175 175 163 130 70 49 126 197 199 205 291 346 9 30 35 24 16 13 12 8 5
96 40 116 157 210 267 205 158 164 203 54 172 175 170 168 178 177 162 171 171 170 164 161 164 171 159 136 92 37 41 197 205 206 250 304 25 9 2 356 359 360 4 0 2
142 145 148 133 201 243 151 147 201 54 103 169 171 175 171 157 147 151 162 162 161 161 166 168 168 165 161 144 36 16 18 212 214 241 260 283 323 329 344 346 338 347 346 350
176 242 163 205 207 106 205 35 216 197 153 172 171 169 166 156 152 155 159 162 162 163 167 176 178 185 191 189 323 351 347 319 231 255 261 284 304 312 338 343 346 340 335 336
185 191 115 179 184 234 217 223 224 180 186 173 178 174 172 165 158 156 161 163 164 169 176 181 191 200 202 246 285 335 329 321 232 275 276 280 304 304 335 341 347 351 348 343
104 157 159 178 228 239 222 196 170 150 153 158 164 176 177 173 160 160 162 163 165 176 184 192 202 209 214 261 301 307 312 307 225 278 286 290 326 326 323 337 344 349 351 356
187 167 185 176 179 157 170 168 159 156 156 162 165 164 173 174 161 159 160 165 171 178 188 194 183 191 197 226 266 310 323 320 189 354 10 5 1 346 328 333 341 352 356 354